TimeCDT,TemperatureF,Dew PointF,Humidity,Sea Level PressureIn,VisibilityMPH,Wind Direction,Wind SpeedMPH,Gust SpeedMPH,PrecipitationIn,Events,Conditions,WindDirDegrees,DateUTC
12:15 AM,73.4,71.6,94,29.86,10.0,SSE,8.1,-,N/A,,Clear,150,2014-05-12 05:15:00
12:35 AM,73.4,71.6,94,29.87,10.0,SE,8.1,-,N/A,,Clear,140,2014-05-12 05:35:00
12:55 AM,73.4,71.6,94,29.87,10.0,SSE,8.1,-,N/A,,Clear,150,2014-05-12 05:55:00
1:15 AM,73.4,71.6,94,29.86,10.0,SE,8.1,-,N/A,,Clear,140,2014-05-12 06:15:00
1:35 AM,73.4,71.6,94,29.86,10.0,SE,8.1,-,N/A,,Clear,140,2014-05-12 06:35:00
2:15 AM,71.6,71.6,100,29.85,10.0,SSE,10.4,-,N/A,,Clear,150,2014-05-12 07:15:00
2:35 AM,73.4,71.6,94,29.85,10.0,SSE,11.5,-,N/A,,Clear,150,2014-05-12 07:35:00
2:55 AM,73.4,71.6,94,29.85,10.0,SSE,10.4,-,N/A,,Clear,150,2014-05-12 07:55:00
3:15 AM,73.4,71.6,94,29.84,10.0,SSE,11.5,-,N/A,,Clear,150,2014-05-12 08:15:00
3:35 AM,73.4,71.6,94,29.83,10.0,SSE,11.5,-,N/A,,Clear,150,2014-05-12 08:35:00
3:55 AM,73.4,71.6,94,29.82,10.0,SSE,10.4,17.3,N/A,,Clear,150,2014-05-12 08:55:00
4:15 AM,71.6,71.6,100,29.83,10.0,SSE,12.7,17.3,N/A,,Clear,150,2014-05-12 09:15:00
4:35 AM,71.6,71.6,100,29.83,10.0,SSE,11.5,-,N/A,,Clear,150,2014-05-12 09:35:00
4:55 AM,71.6,71.6,100,29.84,10.0,SSE,9.2,-,N/A,,Clear,150,2014-05-12 09:55:00
5:15 AM,71.6,71.6,100,29.85,10.0,SSE,8.1,-,N/A,,Clear,150,2014-05-12 10:15:00
5:35 AM,71.6,71.6,100,29.86,10.0,SSE,9.2,-,N/A,,Partly Cloudy,160,2014-05-12 10:35:00
5:55 AM,71.6,71.6,100,29.87,10.0,SSE,8.1,-,N/A,,Mostly Cloudy,150,2014-05-12 10:55:00
6:15 AM,71.6,71.6,100,29.88,10.0,SSE,6.9,-,N/A,,Mostly Cloudy,150,2014-05-12 11:15:00
6:35 AM,71.6,71.6,100,29.89,10.0,SSE,8.1,-,N/A,,Mostly Cloudy,160,2014-05-12 11:35:00
6:55 AM,73.4,71.6,94,29.89,10.0,SSE,9.2,-,N/A,,Overcast,160,2014-05-12 11:55:00
7:15 AM,73.4,71.6,94,29.90,10.0,SSE,10.4,-,N/A,,Overcast,160,2014-05-12 12:15:00
7:35 AM,73.4,71.6,94,29.90,10.0,South,8.1,-,N/A,,Overcast,170,2014-05-12 12:35:00
7:55 AM,73.4,69.8,88,29.91,10.0,South,6.9,-,N/A,,Overcast,180,2014-05-12 12:55:00
8:15 AM,75.2,71.6,89,29.90,10.0,SSE,10.4,-,N/A,,Overcast,160,2014-05-12 13:15:00
8:35 AM,75.2,69.8,83,29.90,10.0,South,11.5,-,N/A,,Mostly Cloudy,170,2014-05-12 13:35:00
9:15 AM,75.2,69.8,83,29.92,10.0,South,9.2,-,N/A,,Scattered Clouds,190,2014-05-12 14:15:00
9:35 AM,77.0,71.6,83,29.91,10.0,South,12.7,16.1,N/A,,Scattered Clouds,180,2014-05-12 14:35:00
9:55 AM,77.0,71.6,83,29.91,10.0,South,13.8,20.7,N/A,,Partly Cloudy,180,2014-05-12 14:55:00
10:15 AM,78.8,71.6,78,29.91,10.0,South,15.0,21.9,N/A,,Scattered Clouds,190,2014-05-12 15:15:00
10:35 AM,78.8,71.6,78,29.91,10.0,South,16.1,-,N/A,,Partly Cloudy,190,2014-05-12 15:35:00
10:55 AM,80.6,71.6,74,29.91,10.0,South,13.8,20.7,N/A,,Clear,190,2014-05-12 15:55:00
11:15 AM,80.6,71.6,74,29.91,10.0,SSW,15.0,-,N/A,,Clear,200,2014-05-12 16:15:00
11:35 AM,82.4,71.6,70,29.91,10.0,SSW,11.5,23.0,N/A,,Partly Cloudy,200,2014-05-12 16:35:00
11:55 AM,82.4,71.6,70,29.91,10.0,South,16.1,24.2,N/A,,Scattered Clouds,190,2014-05-12 16:55:00
12:55 PM,82.4,71.6,70,29.89,10.0,SSW,12.7,25.3,N/A,,Partly Cloudy,200,2014-05-12 17:55:00
1:15 PM,84.2,71.6,66,29.88,10.0,South,15.0,20.7,N/A,,Partly Cloudy,180,2014-05-12 18:15:00
1:35 PM,84.2,71.6,66,29.86,10.0,South,19.6,-,N/A,,Clear,170,2014-05-12 18:35:00
3:15 PM,84.2,71.6,66,29.82,10.0,South,12.7,-,N/A,,Scattered Clouds,190,2014-05-12 20:15:00
3:35 PM,84.2,71.6,66,29.81,10.0,South,15.0,23.0,N/A,,Scattered Clouds,170,2014-05-12 20:35:00
3:55 PM,86.0,71.6,62,29.81,10.0,South,16.1,-,N/A,,Scattered Clouds,170,2014-05-12 20:55:00
4:15 PM,86.0,68.0,55,29.80,10.0,South,18.4,23.0,N/A,,Scattered Clouds,180,2014-05-12 21:15:00
4:35 PM,86.0,69.8,58,29.80,10.0,South,16.1,25.3,N/A,,Partly Cloudy,170,2014-05-12 21:35:00
4:55 PM,84.2,71.6,66,29.80,10.0,SSE,16.1,-,N/A,,Mostly Cloudy,160,2014-05-12 21:55:00
5:15 PM,82.4,71.6,70,29.81,10.0,SSE,17.3,24.2,N/A,,Scattered Clouds,160,2014-05-12 22:15:00
5:35 PM,82.4,71.6,70,29.81,10.0,SSE,18.4,25.3,N/A,,Clear,150,2014-05-12 22:35:00
5:55 PM,80.6,71.6,74,29.80,10.0,SSE,15.0,25.3,N/A,,Partly Cloudy,150,2014-05-12 22:55:00
6:15 PM,80.6,71.6,74,29.80,10.0,SSE,15.0,24.2,N/A,,Clear,160,2014-05-12 23:15:00
6:35 PM,80.6,71.6,74,29.82,10.0,SSE,16.1,-,N/A,,Clear,160,2014-05-12 23:35:00
6:55 PM,78.8,71.6,78,29.82,10.0,SSE,18.4,23.0,N/A,,Partly Cloudy,160,2014-05-12 23:55:00
7:15 PM,78.8,69.8,74,29.82,10.0,SSE,17.3,21.9,N/A,Thunderstorm,Partly Cloudy,160,2014-05-13 00:15:00
7:35 PM,77.0,71.6,83,29.83,10.0,South,13.8,19.6,N/A,,Clear,170,2014-05-13 00:35:00
7:55 PM,77.0,71.6,83,29.84,10.0,South,15.0,19.6,N/A,,Clear,170,2014-05-13 00:55:00
8:35 PM,77.0,66.2,69,29.90,10.0,WNW,16.1,26.5,N/A,,Overcast,290,2014-05-13 01:35:00
8:55 PM,69.8,68.0,94,29.90,1.8,NW,10.4,17.3,0.17,Rain,Heavy Rain,310,2014-05-13 01:55:00
9:15 PM,68.0,68.0,100,29.91,2.5,Calm,Calm,-,0.06,Rain,Light Rain,0,2014-05-13 02:15:00
9:35 PM,68.0,68.0,100,29.91,4.0,Calm,Calm,-,0.10,Rain,Light Rain,0,2014-05-13 02:35:00
9:55 PM,68.0,68.0,100,29.91,5.0,Calm,Calm,-,0.11,Rain,Light Rain,0,2014-05-13 02:55:00
10:15 PM,68.0,68.0,100,29.91,5.0,Calm,Calm,-,N/A,Rain,Light Rain,0,2014-05-13 03:15:00
10:35 PM,68.0,68.0,100,29.91,5.0,SSW,3.5,-,0.02,Rain,Light Rain,200,2014-05-13 03:35:00
10:55 PM,68.0,68.0,100,29.89,4.0,ESE,6.9,-,0.02,Rain,Light Rain,110,2014-05-13 03:55:00
11:15 PM,68.0,68.0,100,29.90,9.0,SE,4.6,-,N/A,,Mostly Cloudy,130,2014-05-13 04:15:00
11:35 PM,66.2,66.2,100,29.90,7.0,SSE,6.9,-,N/A,Rain,Light Rain,150,2014-05-13 04:35:00
11:55 PM,66.2,66.2,100,29.92,4.0,South,6.9,-,N/A,Rain,Light Rain,180,2014-05-13 04:55:00